Location: Feydey
(46.3431°N, 7.0106°E)
Time: 19:47:06
(UTC+00:00)

Cosmos 1328 - Pass Details

Date: 22 October 2021
Orbit: 529 x 552 km, 82.5° (Epoch: 03 December)

Event Time Altitude Azimuth Distance (km) Brightness Sun altitude
Rises 17:32:56 0° 353° (N) 2,735 7.4 -11.0°
Reaches altitude 10° 17:35:07 10° 356° (N) 1,838 6.5 -11.4°
Maximum altitude 17:39:09 68° 80° (E) 599 3.7 -12.1°
Drops below altitude 10° 17:43:10 10° 163° (SSE) 1,826 6.3 -12.8°
Sets 17:45:19 0° 166° (SSE) 2,714 7.2 -13.1°
